This is the latest recevied weather packets stored in our database for station/object KE5WTH-14. If no packets are shown the sender has not sent any weather packets the latest 10 day(s).
| Time | Temp. | Humidity | Pressure | Rain* | Wind** | Luminosity | Snow |
|---|---|---|---|---|---|---|---|
| 1788723647 | 36.67° C | 46% | 1013 hPa | 0 mm | - | 633 W/m² | - |
| 1788723618 | 36.67° C | 46% | 1013 hPa | 0 mm | - | 376 W/m² | - |
| 1788723436 | 36.67° C | 47% | 1013 hPa | 0 mm | - | 985 W/m² | - |
| 1788723374 | 36.67° C | 46% | 1013 hPa | 0 mm | - | 985 W/m² | - |
| 1788723312 | 36.67° C | 46% | 1013 hPa | 0 mm | - | 985 W/m² | - |
| 1788723249 | 36.67° C | 46% | 1013 hPa | 0 mm | - | 981 W/m² | - |
| 1788723190 | 36.67° C | 47% | 1013.1 hPa | 0 mm | - | 290 W/m² | - |
| 1788723126 | 36.67° C | 47% | 1013.3 hPa | 0 mm | - | 290 W/m² | - |
| 1788723077 | 36.67° C | 47% | 1013.1 hPa | 0 mm | - | 237 W/m² | - |
| 1788723048 | 36.67° C | 47% | 1013.1 hPa | 0 mm | - | 965 W/m² | - |
| 1788723017 | 36.67° C | 48% | 1013.1 hPa | 0 mm | - | 957 W/m² | - |
| 1788722982 | 36.67° C | 47% | 1013.1 hPa | 0 mm | - | 914 W/m² | - |
| 1788722824 | 36.67° C | 47% | 1013.1 hPa | 0 mm | - | 248 W/m² | - |
| 1788722794 | 36.11° C | 48% | 1013.1 hPa | 0 mm | - | 948 W/m² | - |
| 1788722765 | 36.11° C | 47% | 1013.1 hPa | 0 mm | - | 944 W/m² | - |
| 1788722735 | 36.11° C | 47% | 1013.3 hPa | 0 mm | - | 962 W/m² | - |
| 1788722571 | 36.11° C | 48% | 1013.3 hPa | 0 mm | - | 962 W/m² | - |
| 1788722508 | 36.11° C | 48% | 1013.3 hPa | 0 mm | - | 962 W/m² | - |
| 1788722447 | 35.56° C | 48% | 1013.4 hPa | 0 mm | - | 976 W/m² | - |
| 1788722400 | 35.56° C | 49% | 1013.4 hPa | 0 mm | - | 985 W/m² | - |
| 1788722370 | 35.56° C | 48% | 1013.4 hPa | 0 mm | - | 232 W/m² | - |
| 1788722338 | 35.56° C | 49% | 1013.3 hPa | 0 mm | - | 190 W/m² | - |
| 1788722310 | 35.56° C | 49% | 1013.4 hPa | 0 mm | - | 186 W/m² | - |
| 1788722278 | 35.56° C | 48% | 1013.3 hPa | 0 mm | - | 185 W/m² | - |
| 1788722247 | 35.56° C | 48% | 1013.5 hPa | 0 mm | - | 183 W/m² | - |
* Rain latest hour (hover to see other rain measurements)
** Current wind speed in m/s (hover to see current wind gust speed)